K1DRD Weather Reports


time (UTC)temp
C
wind
direction
speed
KPH
gust
KPH
rain 1hr
cm
rain 24hr
cm
rain mn
cm
humidity
%
barometer
mb
20260505024004 13 302 1.6 4.8 0.00 0.00 0.00 57 1010.6
20260505023505 13 241 1.6 4.8 0.00 0.00 0.00 57 1010.6
20260505023018 13 208 1.6 9.7 0.00 0.00 0.00 56 1010.6
20260505022509 13 276 1.6 9.7 0.00 0.00 0.00 56 1010.7
20260505022006 13 265 1.6 8.0 0.00 0.00 0.00 55 1010.7
20260505021523 13 233 1.6 6.4 0.00 0.00 0.00 55 1010.7
20260505021008 13 174 1.6 8.0 0.00 0.00 0.00 55 1010.7
20260505020509 14 164 3.2 8.0 0.00 0.00 0.00 54 1010.6
20260505020026 14 222 1.6 8.0 0.00 0.00 0.00 54 1010.5
20260505015513 14 3 0.0 4.8 0.00 0.00 0.00 53 1010.5
20260505015004 14 48 0.0 9.7 0.00 0.00 0.00 53 1010.4
20260505014512 14 184 1.6 9.7 0.00 0.00 0.00 52 1010.5
20260505014007 14 277 1.6 9.7 0.00 0.00 0.00 52 1010.5
20260505013504 15 152 0.0 9.7 0.00 0.00 0.00 52 1010.4
20260505013017 15 276 1.6 8.0 0.00 0.00 0.00 51 1010.4
20260505012506 15 275 1.6 8.0 0.00 0.00 0.00 52 1010.3
20260505012009 15 123 1.6 4.8 0.00 0.00 0.00 51 1010.2
20260505011522 15 261 0.0 3.2 0.00 0.00 0.00 51 1010.1
20260505011007 15 353 0.0 6.4 0.00 0.00 0.00 50 1010.1
20260505010508 15 183 0.0 6.4 0.00 0.00 0.00 49 1010.1
20260505010024 15 139 1.6 6.4 0.00 0.00 0.00 49 1010.0
20260505005507 15 316 0.0 9.7 0.00 0.00 0.00 48 1009.9
20260505005012 16 240 1.6 9.7 0.00 0.00 0.00 47 1009.7
20260505004528 16 195 1.6 9.7 0.00 0.00 0.00 47 1009.7
20260505004008 16 308 1.6 8.0 0.00 0.00 0.00 47 1009.5
20260505003507 16 131 1.6 8.0 0.00 0.00 0.00 46 1009.5
20260505003020 16 84 1.6 17.7 0.00 0.00 0.00 47 1009.2
20260505002507 16 180 1.6 17.7 0.00 0.00 0.00 46 1009.1
20260505002003 16 360 1.6 6.4 0.00 0.00 0.00 46 1009.0
20260505001516 16 56 3.2 6.4 0.00 0.00 0.00 45 1008.8
20260505001006 16 338 1.6 6.4 0.00 0.00 0.00 46 1008.7
20260505000506 16 294 1.6 9.7 0.00 0.00 0.00 45 1008.6
20260505000024 16 27 1.6 9.7 0.00 0.00 0.00 45 1008.5
20260504235508 17 290 3.2 9.7 0.00 0.00 0.00 45 1008.3
20260504235002 17 196 1.6 9.7 0.00 0.00 0.00 44 1008.1
20260504234506 17 355 1.6 11.3 0.00 0.00 0.00 44 1008.1
20260504234002 17 323 3.2 11.3 0.00 0.00 0.00 43 1008.1
20260504233502 17 300 3.2 11.3 0.00 0.00 0.00 44 1008.0
20260504233010 17 272 3.2 11.3 0.00 0.00 0.00 43 1008.0
20260504232502 17 260 3.2 12.9 0.00 0.00 0.00 42 1007.9
20260504232005 18 89 3.2 12.9 0.00 0.00 0.00 42 1007.8
20260504231517 18 210 3.2 8.0 0.00 0.00 0.00 41 1007.8
20260504231005 18 264 1.6 9.7 0.00 0.00 0.00 41 1007.7
20260504230505 18 292 3.2 9.7 0.00 0.00 0.00 39 1007.6
20260504230020 18 185 1.6 11.3 0.00 0.00 0.00 39 1007.4
20260504225511 18 293 3.2 12.9 0.00 0.00 0.00 39 1007.4
20260504225008 18 1 1.6 12.9 0.00 0.00 0.00 39 1007.3
20260504224525 19 238 3.2 11.3 0.00 0.00 0.00 37 1007.2
20260504224003 19 115 1.6 8.0 0.00 0.00 0.00 38 1007.2
20260504223503 19 255 3.2 8.0 0.00 0.00 0.00 37 1007.0
20260504223007 19 241 1.6 6.4 0.00 0.00 0.00 38 1007.1
20260504222504 20 255 1.6 9.7 0.00 0.00 0.00 37 1007.1
20260504222005 20 174 3.2 12.9 0.00 0.00 0.00 35 1007.0
20260504221512 20 47 1.6 12.9 0.00 0.00 0.00 36 1007.0
20260504221007 20 302 1.6 9.7 0.00 0.00 0.00 35 1007.0
20260504220506 21 326 3.2 11.3 0.00 0.00 0.00 33 1006.9
20260504220018 21 218 3.2 11.3 0.00 0.00 0.00 32 1006.9
20260504215506 21 282 3.2 12.9 0.00 0.00 0.00 31 1006.9
20260504215007 21 250 1.6 12.9 0.00 0.00 0.00 31 1006.8
20260504214523 21 297 4.8 12.9 0.00 0.00 0.00 31 1006.9
20260504214007 21 313 3.2 12.9 0.00 0.00 0.00 31 1006.9
20260504213507 21 275 3.2 9.7 0.00 0.00 0.00 31 1006.8
20260504213025 21 246 3.2 9.7 0.00 0.00 0.00 31 1006.9
20260504212503 21 284 6.4 11.3 0.00 0.00 0.00 29 1006.9
20260504212003 21 300 6.4 11.3 0.00 0.00 0.00 30 1006.9
20260504211510 21 285 4.8 11.3 0.00 0.00 0.00 30 1006.8
20260504211011 21 211 3.2 9.7 0.00 0.00 0.00 30 1006.9
20260504210506 21 286 4.8 9.7 0.00 0.00 0.00 31 1006.8
20260504210017 21 287 4.8 9.7 0.00 0.00 0.00 29 1006.8
20260504205511 21 30 4.8 9.7 0.00 0.00 0.00 29 1006.8
20260504205007 21 148 3.2 12.9 0.00 0.00 0.00 29 1006.7
20260504204519 21 288 3.2 12.9 0.00 0.00 0.00 31 1006.8
20260504204007 21 321 1.6 12.9 0.00 0.00 0.00 30 1006.7
20260504203510 21 112 4.8 14.5 0.00 0.00 0.00 30 1006.9
20260504203034 21 260 9.7 14.5 0.00 0.00 0.00 30 1006.8
20260504202508 21 221 4.8 19.3 0.00 0.00 0.00 30 1007.0
20260504202008 21 302 6.4 19.3 0.00 0.00 0.00 30 1006.9
20260504201509 21 295 4.8 17.7 0.00 0.00 0.00 28 1006.9
20260504201009 21 276 8.0 19.3 0.00 0.00 0.00 29 1007.0
20260504200503 21 295 8.0 19.3 0.00 0.00 0.00 28 1007.1
20260504200015 21 321 4.8 9.7 0.00 0.00 0.00 29 1006.9
20260504195506 21 139 4.8 16.1 0.00 0.00 0.00 29 1007.0
20260504195013 21 310 6.4 14.5 0.00 0.00 0.00 28 1007.0
20260504194519 20 252 6.4 14.5 0.00 0.00 0.00 31 1007.0
20260504194006 20 278 8.0 14.5 0.00 0.00 0.00 29 1007.1
20260504193509 21 251 9.7 14.5 0.00 0.00 0.00 28 1007.1
20260504193023 21 285 4.8 16.1 0.00 0.00 0.00 29 1007.2
20260504192508 21 250 8.0 14.5 0.00 0.00 0.00 29 1007.0
20260504192009 21 300 6.4 11.3 0.00 0.00 0.00 29 1007.1
20260504191528 20 309 6.4 14.5 0.00 0.00 0.00 28 1007.1
20260504191010 20 266 6.4 14.5 0.00 0.00 0.00 28 1007.2
20260504190504 20 290 8.0 14.5 0.00 0.00 0.00 27 1007.1
20260504190012 21 274 4.8 14.5 0.00 0.00 0.00 29 1007.2
20260504185503 20 278 9.7 16.1 0.00 0.00 0.00 28 1007.3
20260504185003 21 268 6.4 16.1 0.00 0.00 0.00 27 1007.5
20260504184518 21 281 6.4 16.1 0.00 0.00 0.00 28 1007.3
20260504184006 20 259 9.7 16.1 0.00 0.00 0.00 27 1007.4
20260504183508 20 252 6.4 17.7 0.00 0.00 0.00 29 1007.4
20260504183029 20 297 9.7 17.7 0.00 0.00 0.00 26 1007.5
20260504182510 21 273 8.0 12.9 0.00 0.00 0.00 27 1007.4
20260504182011 20 275 6.4 12.9 0.00 0.00 0.00 28 1007.5
20260504181524 20 227 8.0 19.3 0.00 0.00 0.00 28 1007.5
20260504181008 20 285 8.0 19.3 0.00 0.00 0.00 27 1007.6
20260504180509 20 270 8.0 19.3 0.00 0.00 0.00 28 1007.8
20260504180028 20 268 9.7 24.1 0.00 0.00 0.00 28 1007.6
20260504175508 20 290 9.7 24.1 0.00 0.00 0.00 30 1007.7
20260504175004 20 255 6.4 16.1 0.00 0.00 0.00 29 1007.7
20260504174516 20 271 4.8 16.1 0.00 0.00 0.00 29 1007.8
20260504174003 20 238 9.7 14.5 0.00 0.00 0.00 30 1007.9
20260504173507 20 136 6.4 14.5 0.00 0.00 0.00 28 1007.8
20260504173019 20 337 6.4 14.5 0.00 0.00 0.00 29 1008.0
20260504172507 20 285 6.4 14.5 0.00 0.00 0.00 28 1007.9
20260504172010 20 81 4.8 19.3 0.00 0.00 0.00 30 1007.9
20260504171523 20 294 11.3 19.3 0.00 0.00 0.00 30 1007.8
20260504171009 20 261 4.8 16.1 0.00 0.00 0.00 28 1007.8
20260504170508 19 267 8.0 17.7 0.00 0.00 0.00 29 1007.9
20260504151010 17 278 9.7 16.1 0.00 0.00 0.00 35 1009.0
20260504150507 17 258 6.4 16.1 0.00 0.00 0.00 33 1009.0
20260504141003 16 281 3.2 12.9 0.00 0.03 0.00 38 1009.6
20260504140507 16 276 6.4 12.9 0.00 0.03 0.00 39 1009.8
20260504130508 14 287 3.2 6.4 0.00 0.03 0.00 42 1010.6
20260504110506 8 269 0.0 3.2 0.00 0.03 0.00 55 1010.8
20260504100505 7 186 0.0 3.2 0.00 0.03 0.00 59 1010.8
20260504082007 7 181 0.0 3.2 0.00 0.03 0.00 57 1010.7
20260504081520 7 181 0.0 3.2 0.00 0.03 0.00 57 1010.6
20260504081007 7 181 0.0 3.2 0.00 0.03 0.00 56 1010.7
20260504080506 7 181 0.0 3.2 0.00 0.03 0.00 57 1010.6
20260504050506 4 268 0.0 3.2 0.00 0.03 0.00 73 1010.2
20260504050019 3 268 0.0 0.0 0.00 0.03 0.00 74 1010.3
20260504045507 3 268 0.0 3.2 0.00 0.03 0.00 77 1010.3
20260504045007 3 268 0.0 3.2 0.00 0.03 0.00 78 1010.3
20260504044524 2 268 0.0 3.2 0.00 0.03 0.00 78 1010.6
20260504044006 2 268 0.0 3.2 0.00 0.03 0.00 78 1010.4
20260504043504 2 268 0.0 0.0 0.00 0.03 0.00 78 1010.5
20260504043007 2 268 0.0 0.0 0.00 0.03 0.00 78 1010.4
20260504042504 2 268 0.0 0.0 0.00 0.03 0.00 78 1010.3
20260504042005 2 268 0.0 0.0 0.00 0.03 0.00 77 1010.3
20260504041514 2 268 0.0 1.6 0.00 0.03 0.00 77 1010.3
20260504041004 2 268 0.0 1.6 0.00 0.03 0.00 76 1010.2
20260504040503 2 268 0.0 0.0 0.00 0.03 0.00 76 1010.1
20260504040019 2 268 0.0 1.6 0.00 0.03 0.00 76 1010.1
20260504035506 2 268 0.0 1.6 0.00 0.03 0.03 75 1010.0
20260504035010 2 268 0.0 1.6 0.00 0.03 0.03 75 1010.0
20260504034521 2 268 0.0 0.0 0.00 0.03 0.03 75 1010.1
20260504034014 2 268 0.0 0.0 0.00 0.03 0.03 75 1009.9
20260504033508 3 268 0.0 0.0 0.00 0.03 0.03 74 1009.9
20260504033026 3 268 0.0 0.0 0.00 0.03 0.03 74 1009.9
20260504032504 3 268 0.0 0.0 0.00 0.03 0.03 74 1009.9
20260504032004 3 268 0.0 0.0 0.00 0.03 0.03 74 1009.9
20260504031510 3 268 0.0 0.0 0.00 0.03 0.03 73 1009.9
20260504031002 3 268 0.0 0.0 0.00 0.03 0.03 72 1009.9
20260504030506 3 268 0.0 0.0 0.00 0.03 0.03 72 1009.9
20260504030015 3 268 0.0 0.0 0.00 0.03 0.03 71 1009.8
20260504025504 4 268 0.0 0.0 0.00 0.03 0.03 71 1009.8
20260504025007 4 268 0.0 0.0 0.00 0.03 0.03 71 1009.8
20260504024520 4 268 0.0 0.0 0.00 0.03 0.03 71 1009.9